Time,TemperatureF,DewpointF,PressureIn,WindDirection,WindDirectionDegrees,WindSpeedMPH,WindSpeedGustMPH,Humidity,HourlyPrecipIn,Conditions,Clouds,dailyrainin,SoftwareType,DateUTC
2013-05-28 00:08:00,52.7,50.0,30.12,WSW,257,0.0,0.0,91,0.00,,,0.00,weatherlink.com 1.10,2013-05-28 04:08:00,
2013-05-28 00:23:00,52.7,50.0,30.12,WSW,257,0.0,0.0,91,0.00,,,0.00,weatherlink.com 1.10,2013-05-28 04:23:00,
2013-05-28 00:38:00,52.8,51.0,30.12,ENE,65,0.0,0.0,92,0.00,,,0.00,weatherlink.com 1.10,2013-05-28 04:38:00,
2013-05-28 00:53:00,52.9,50.0,30.11,ENE,65,0.0,0.0,91,0.00,,,0.00,weatherlink.com 1.10,2013-05-28 04:53:00,
2013-05-28 01:08:00,53.0,51.0,30.11,ENE,68,0.0,0.0,91,0.00,,,0.00,weatherlink.com 1.10,2013-05-28 05:08:00,
2013-05-28 01:23:00,53.6,51.0,30.10,ENE,77,0.0,1.0,89,0.00,,,0.00,weatherlink.com 1.10,2013-05-28 05:23:00,
2013-05-28 01:39:00,54.3,50.0,30.10,East,86,0.0,1.0,86,0.00,,,0.00,weatherlink.com 1.10,2013-05-28 05:39:00,
2013-05-28 01:54:00,54.8,50.0,30.10,East,80,0.0,1.0,84,0.00,,,0.00,weatherlink.com 1.10,2013-05-28 05:54:00,
2013-05-28 02:09:00,55.5,50.0,30.10,ENE,60,0.0,1.0,83,0.00,,,0.00,weatherlink.com 1.10,2013-05-28 06:09:00,
2013-05-28 02:24:00,55.2,51.0,30.11,ESE,107,1.0,1.0,85,0.00,,,0.00,weatherlink.com 1.10,2013-05-28 06:24:00,
2013-05-28 02:39:00,54.2,51.0,30.09,ESE,110,0.0,5.0,88,0.00,,,0.00,weatherlink.com 1.10,2013-05-28 06:39:00,
2013-05-28 02:54:00,54.0,51.0,30.10,East,86,0.0,2.0,89,0.00,,,0.00,weatherlink.com 1.10,2013-05-28 06:54:00,
2013-05-28 03:09:00,53.9,51.0,30.11,ESE,108,0.0,1.0,90,0.00,,,0.00,weatherlink.com 1.10,2013-05-28 07:09:00,
2013-05-28 03:24:00,53.8,51.0,30.10,ENE,65,1.0,2.0,91,0.00,,,0.00,weatherlink.com 1.10,2013-05-28 07:24:00,
2013-05-28 03:39:00,53.7,52.0,30.09,East,86,2.0,3.0,92,0.00,,,0.00,weatherlink.com 1.10,2013-05-28 07:39:00,
2013-05-28 03:54:00,53.7,52.0,30.10,West,280,0.0,2.0,92,0.00,,,0.00,weatherlink.com 1.10,2013-05-28 07:54:00,
2013-05-28 04:09:00,53.6,51.0,30.08,East,82,1.0,3.0,92,0.00,,,0.00,weatherlink.com 1.10,2013-05-28 08:09:00,
2013-05-28 04:24:00,53.7,52.0,30.08,ENE,70,0.0,3.0,93,0.00,,,0.00,weatherlink.com 1.10,2013-05-28 08:24:00,
2013-05-28 04:39:00,53.7,52.0,30.07,ENE,62,1.0,3.0,93,0.00,,,0.00,weatherlink.com 1.10,2013-05-28 08:39:00,
2013-05-28 04:54:00,53.9,52.0,30.06,NE,40,1.0,2.0,93,0.00,,,0.00,weatherlink.com 1.10,2013-05-28 08:54:00,
2013-05-28 05:09:00,53.8,52.0,30.06,NNE,29,0.0,1.0,93,0.00,,,0.00,weatherlink.com 1.10,2013-05-28 09:09:00,
2013-05-28 05:24:00,53.9,52.0,30.07,East,82,1.0,2.0,93,0.00,,,0.00,weatherlink.com 1.10,2013-05-28 09:24:00,
2013-05-28 05:39:00,54.0,52.0,30.07,NE,50,1.0,1.0,93,0.00,,,0.00,weatherlink.com 1.10,2013-05-28 09:39:00,
2013-05-28 05:54:00,54.2,52.0,30.07,ENE,76,2.0,2.0,93,0.00,,,0.00,weatherlink.com 1.10,2013-05-28 09:54:00,
2013-05-28 06:09:00,54.4,53.0,30.08,East,79,0.0,1.0,93,0.00,,,0.00,weatherlink.com 1.10,2013-05-28 10:09:00,
2013-05-28 06:24:00,54.4,53.0,30.09,East,79,0.0,1.0,93,0.00,,,0.00,weatherlink.com 1.10,2013-05-28 10:24:00,
2013-05-28 06:39:00,54.6,53.0,30.09,ENE,68,0.0,0.0,93,0.00,,,0.00,weatherlink.com 1.10,2013-05-28 10:39:00,
2013-05-28 06:54:00,54.6,53.0,30.09,ENE,68,0.0,1.0,93,0.00,,,0.00,weatherlink.com 1.10,2013-05-28 10:54:00,
2013-05-28 07:09:00,54.6,53.0,30.09,ENE,61,0.0,1.0,93,0.00,,,0.00,weatherlink.com 1.10,2013-05-28 11:09:00,
2013-05-28 07:24:00,54.8,53.0,30.09,NE,53,0.0,1.0,94,0.00,,,0.00,weatherlink.com 1.10,2013-05-28 11:24:00,
2013-05-28 07:39:00,54.9,53.0,30.08,NE,53,0.0,1.0,94,0.00,,,0.00,weatherlink.com 1.10,2013-05-28 11:39:00,
2013-05-28 07:54:00,55.4,54.0,30.08,NE,47,0.0,2.0,94,0.00,,,0.00,weatherlink.com 1.10,2013-05-28 11:54:00,
2013-05-28 08:09:00,55.9,54.0,30.07,ENE,64,0.0,1.0,94,0.00,,,0.00,weatherlink.com 1.10,2013-05-28 12:09:00,
2013-05-28 08:24:00,56.3,55.0,30.07,NW,304,2.0,2.0,94,0.00,,,0.00,weatherlink.com 1.10,2013-05-28 12:24:00,
2013-05-28 08:39:00,56.9,55.0,30.08,WNW,283,0.0,1.0,94,0.00,,,0.00,weatherlink.com 1.10,2013-05-28 12:39:00,
2013-05-28 08:54:00,57.4,56.0,30.08,WNW,282,0.0,0.0,94,0.00,,,0.00,weatherlink.com 1.10,2013-05-28 12:54:00,
2013-05-28 09:09:00,58.2,57.0,30.08,WNW,284,0.0,1.0,95,0.00,,,0.00,weatherlink.com 1.10,2013-05-28 13:09:00,
2013-05-28 09:24:00,58.6,57.0,30.08,WNW,283,0.0,0.0,94,0.00,,,0.00,weatherlink.com 1.10,2013-05-28 13:24:00,
2013-05-28 09:39:00,58.9,57.0,30.08,WNW,283,0.0,0.0,94,0.00,,,0.00,weatherlink.com 1.10,2013-05-28 13:39:00,
2013-05-28 09:54:00,59.7,58.0,30.08,West,259,0.0,1.0,95,0.00,,,0.00,weatherlink.com 1.10,2013-05-28 13:54:00,
2013-05-28 10:09:00,59.9,59.0,30.08,West,259,0.0,0.0,95,0.00,,,0.00,weatherlink.com 1.10,2013-05-28 14:09:00,
2013-05-28 10:24:00,61.2,60.0,30.08,WSW,248,0.0,3.0,95,0.00,,,0.00,weatherlink.com 1.10,2013-05-28 14:24:00,
2013-05-28 10:39:00,61.9,61.0,30.09,SW,214,2.0,2.0,95,0.00,,,0.00,weatherlink.com 1.10,2013-05-28 14:39:00,
2013-05-28 10:54:00,62.4,61.0,30.09,SSW,205,2.0,3.0,95,0.00,,,0.00,weatherlink.com 1.10,2013-05-28 14:54:00,
2013-05-28 11:09:00,62.7,61.0,30.09,SSW,203,0.0,4.0,94,0.00,,,0.00,weatherlink.com 1.10,2013-05-28 15:09:00,
2013-05-28 11:24:00,63.2,62.0,30.09,West,271,1.0,4.0,94,0.00,,,0.00,weatherlink.com 1.10,2013-05-28 15:24:00,
2013-05-28 11:39:00,63.8,62.0,30.10,WSW,249,0.0,2.0,94,0.00,,,0.00,weatherlink.com 1.10,2013-05-28 15:39:00,
2013-05-28 11:54:00,64.2,63.0,30.10,SSW,205,0.0,1.0,94,0.00,,,0.00,weatherlink.com 1.10,2013-05-28 15:54:00,
2013-05-28 12:09:00,64.3,63.0,30.10,West,259,0.0,1.0,94,0.00,,,0.00,weatherlink.com 1.10,2013-05-28 16:09:00,
2013-05-28 12:25:00,65.4,64.0,30.10,WNW,284,2.0,2.0,94,0.00,,,0.00,weatherlink.com 1.10,2013-05-28 16:25:00,
2013-05-28 12:40:00,65.4,63.0,30.09,WSW,252,2.0,3.0,93,0.00,,,0.00,weatherlink.com 1.10,2013-05-28 16:40:00,
2013-05-28 12:55:00,66.0,64.0,30.09,WSW,253,0.0,3.0,93,0.00,,,0.00,weatherlink.com 1.10,2013-05-28 16:55:00,
2013-05-28 13:10:00,66.9,65.0,30.09,SW,219,1.0,2.0,92,0.00,,,0.00,weatherlink.com 1.10,2013-05-28 17:10:00,
2013-05-28 13:25:00,68.1,66.0,30.09,West,281,0.0,3.0,92,0.00,,,0.00,weatherlink.com 1.10,2013-05-28 17:25:00,
2013-05-28 13:40:00,69.0,66.0,30.08,SSW,208,0.0,4.0,91,0.00,,,0.00,weatherlink.com 1.10,2013-05-28 17:40:00,
2013-05-28 13:55:00,70.7,67.0,30.07,South,191,0.0,4.0,87,0.00,,,0.00,weatherlink.com 1.10,2013-05-28 17:55:00,
2013-05-28 14:10:00,73.0,69.0,30.07,SSW,212,3.0,5.0,86,0.00,,,0.00,weatherlink.com 1.10,2013-05-28 18:10:00,
2013-05-28 14:25:00,72.3,66.0,30.07,West,280,1.0,7.0,80,0.00,,,0.00,weatherlink.com 1.10,2013-05-28 18:25:00,
2013-05-28 14:40:00,71.5,66.0,30.07,WNW,299,1.0,4.0,82,0.00,,,0.00,weatherlink.com 1.10,2013-05-28 18:40:00,
2013-05-28 14:55:00,71.5,67.0,30.06,SE,139,0.0,3.0,86,0.00,,,0.00,weatherlink.com 1.10,2013-05-28 18:55:00,
2013-05-28 15:10:00,71.9,67.0,30.06,West,262,0.0,3.0,84,0.00,,,0.00,weatherlink.com 1.10,2013-05-28 19:10:00,
2013-05-28 15:25:00,72.6,66.0,30.06,WNW,288,1.0,3.0,80,0.00,,,0.00,weatherlink.com 1.10,2013-05-28 19:25:00,
2013-05-28 15:40:00,72.9,66.0,30.06,SSE,151,1.0,4.0,80,0.00,,,0.00,weatherlink.com 1.10,2013-05-28 19:40:00,
2013-05-28 16:11:00,75.2,68.0,30.04,ENE,78,1.0,4.0,78,0.00,,,0.00,weatherlink.com 1.10,2013-05-28 20:11:00,
2013-05-28 16:25:00,75.5,68.0,30.04,SSW,195,3.0,5.0,77,0.00,,,0.00,weatherlink.com 1.10,2013-05-28 20:25:00,
2013-05-28 16:40:00,74.8,67.0,30.03,ENE,66,0.0,3.0,77,0.00,,,0.00,weatherlink.com 1.10,2013-05-28 20:40:00,
2013-05-28 16:55:00,75.6,66.0,30.03,South,188,2.0,8.0,73,0.00,,,0.00,weatherlink.com 1.10,2013-05-28 20:55:00,
2013-05-28 17:10:00,75.6,66.0,30.03,SW,228,2.0,6.0,73,0.00,,,0.00,weatherlink.com 1.10,2013-05-28 21:10:00,
2013-05-28 17:25:00,76.3,66.0,30.03,South,190,5.0,9.0,70,0.00,,,0.00,weatherlink.com 1.10,2013-05-28 21:25:00,
2013-05-28 17:40:00,76.4,66.0,30.03,East,79,1.0,7.0,71,0.00,,,0.00,weatherlink.com 1.10,2013-05-28 21:40:00,
2013-05-28 17:55:00,77.2,66.0,30.02,West,277,3.0,6.0,69,0.00,,,0.00,weatherlink.com 1.10,2013-05-28 21:55:00,
2013-05-28 18:10:00,77.5,67.0,30.01,SSW,198,2.0,5.0,70,0.00,,,0.00,weatherlink.com 1.10,2013-05-28 22:10:00,
2013-05-28 18:25:00,77.2,66.0,30.00,WSW,239,0.0,4.0,69,0.00,,,0.00,weatherlink.com 1.10,2013-05-28 22:25:00,
2013-05-28 18:40:00,77.8,66.0,30.00,WNW,288,2.0,4.0,68,0.00,,,0.00,weatherlink.com 1.10,2013-05-28 22:40:00,
2013-05-28 18:56:00,77.6,66.0,30.00,WNW,293,2.0,5.0,67,0.00,,,0.00,weatherlink.com 1.10,2013-05-28 22:56:00,
2013-05-28 19:11:00,76.6,67.0,30.00,West,277,0.0,3.0,71,0.00,,,0.00,weatherlink.com 1.10,2013-05-28 23:11:00,
2013-05-28 19:26:00,75.2,65.0,30.00,West,266,0.0,4.0,71,0.00,,,0.00,weatherlink.com 1.10,2013-05-28 23:26:00,
2013-05-28 19:41:00,74.9,66.0,30.00,WNW,284,0.0,2.0,74,0.00,,,0.00,weatherlink.com 1.10,2013-05-28 23:41:00,
2013-05-28 19:56:00,73.9,65.0,30.01,SE,139,0.0,2.0,73,0.00,,,0.00,weatherlink.com 1.10,2013-05-28 23:56:00,
2013-05-28 20:11:00,73.1,65.0,30.01,South,185,0.0,1.0,75,0.00,,,0.00,weatherlink.com 1.10,2013-05-29 00:11:00,
2013-05-28 20:26:00,71.9,64.0,30.01,South,188,0.0,1.0,76,0.00,,,0.00,weatherlink.com 1.10,2013-05-29 00:26:00,
2013-05-28 20:41:00,70.3,63.0,30.01,South,188,0.0,0.0,78,0.00,,,0.00,weatherlink.com 1.10,2013-05-29 00:41:00,
2013-05-28 20:56:00,68.8,63.0,30.01,South,188,0.0,0.0,82,0.00,,,0.00,weatherlink.com 1.10,2013-05-29 00:56:00,
2013-05-28 21:11:00,67.2,62.0,30.01,South,188,0.0,0.0,84,0.00,,,0.00,weatherlink.com 1.10,2013-05-29 01:11:00,
2013-05-28 21:26:00,66.3,62.0,30.01,South,188,0.0,0.0,86,0.00,,,0.00,weatherlink.com 1.10,2013-05-29 01:26:00,
2013-05-28 21:41:00,65.3,61.0,30.02,South,188,0.0,0.0,87,0.00,,,0.00,weatherlink.com 1.10,2013-05-29 01:41:00,
2013-05-28 21:56:00,64.7,61.0,30.02,South,188,0.0,0.0,88,0.00,,,0.00,weatherlink.com 1.10,2013-05-29 01:56:00,
2013-05-28 22:11:00,64.1,61.0,30.02,South,188,0.0,0.0,89,0.00,,,0.00,weatherlink.com 1.10,2013-05-29 02:11:00,
2013-05-28 22:26:00,63.5,61.0,30.02,South,188,0.0,0.0,90,0.00,,,0.00,weatherlink.com 1.10,2013-05-29 02:26:00,
2013-05-28 22:41:00,63.0,60.0,30.02,South,189,0.0,0.0,91,0.00,,,0.00,weatherlink.com 1.10,2013-05-29 02:41:00,
2013-05-28 22:56:00,62.5,60.0,30.02,South,188,0.0,0.0,91,0.00,,,0.00,weatherlink.com 1.10,2013-05-29 02:56:00,
2013-05-28 23:11:00,62.2,60.0,30.02,South,188,0.0,0.0,91,0.00,,,0.00,weatherlink.com 1.10,2013-05-29 03:11:00,
2013-05-28 23:26:00,62.0,60.0,30.02,South,188,0.0,0.0,92,0.00,,,0.00,weatherlink.com 1.10,2013-05-29 03:26:00,
2013-05-28 23:41:00,61.8,60.0,30.03,South,188,0.0,0.0,92,0.00,,,0.00,weatherlink.com 1.10,2013-05-29 03:41:00,
2013-05-28 23:56:00,61.9,60.0,30.03,South,188,0.0,0.0,92,0.00,,,0.00,weatherlink.com 1.10,2013-05-29 03:56:00,